TimeMST,TemperatureF,Dew PointF,Humidity,Sea Level PressureIn,VisibilityMPH,Wind Direction,Wind SpeedMPH,Gust SpeedMPH,PrecipitationIn,Events,Conditions,WindDirDegrees,DateUTC
12:54 AM,36.0,26.1,67,30.05,10.0,SSE,5.8,-,N/A,,Clear,160,2012-11-21 07:54:00
1:54 AM,36.0,26.1,67,30.03,10.0,SSE,6.9,-,N/A,,Clear,150,2012-11-21 08:54:00
2:54 AM,33.1,25.0,72,30.03,10.0,SSE,5.8,-,N/A,,Clear,160,2012-11-21 09:54:00
3:54 AM,32.0,25.0,75,30.02,10.0,SSE,3.5,-,N/A,,Clear,150,2012-11-21 10:54:00
4:54 AM,34.0,25.0,70,30.04,10.0,SSE,6.9,-,N/A,,Clear,160,2012-11-21 11:54:00
5:54 AM,33.1,25.0,72,30.04,10.0,NNW,3.5,-,N/A,,Clear,340,2012-11-21 12:54:00
6:54 AM,34.0,25.0,70,30.04,10.0,Calm,Calm,-,N/A,,Clear,0,2012-11-21 13:54:00
7:54 AM,36.0,25.0,64,30.03,10.0,ESE,3.5,-,N/A,,Clear,110,2012-11-21 14:54:00
8:54 AM,30.9,25.0,79,30.07,10.0,North,3.5,-,N/A,,Clear,360,2012-11-21 15:54:00
9:54 AM,42.1,30.0,62,30.00,10.0,Calm,Calm,-,N/A,,Clear,0,2012-11-21 16:54:00
10:54 AM,46.0,26.1,46,29.98,10.0,Calm,Calm,-,N/A,,Clear,0,2012-11-21 17:54:00
11:54 AM,48.9,28.0,44,29.94,10.0,SW,6.9,-,N/A,,Clear,230,2012-11-21 18:54:00
12:54 PM,53.1,27.0,37,29.90,10.0,WSW,6.9,-,N/A,,Clear,250,2012-11-21 19:54:00
1:54 PM,55.0,23.0,29,29.88,10.0,WSW,16.1,21.9,N/A,,Clear,240,2012-11-21 20:54:00
2:54 PM,54.0,23.0,30,29.89,10.0,WSW,17.3,-,N/A,,Clear,250,2012-11-21 21:54:00
3:54 PM,53.1,24.1,32,29.90,10.0,WSW,17.3,-,N/A,,Mostly Cloudy,250,2012-11-21 22:54:00
4:54 PM,48.9,24.1,38,29.91,10.0,SW,12.7,-,N/A,,Partly Cloudy,230,2012-11-21 23:54:00
5:54 PM,48.0,24.1,39,29.93,10.0,SW,13.8,-,N/A,,Overcast,230,2012-11-22 00:54:00
6:54 PM,46.9,25.0,42,29.94,10.0,West,16.1,-,N/A,,Overcast,270,2012-11-22 01:54:00
7:54 PM,44.1,25.0,47,29.97,10.0,SW,9.2,-,N/A,,Mostly Cloudy,230,2012-11-22 02:54:00
8:54 PM,41.0,25.0,53,30.00,10.0,SW,9.2,-,N/A,,Clear,230,2012-11-22 03:54:00
9:54 PM,39.9,25.0,55,29.97,10.0,WNW,5.8,-,N/A,,Scattered Clouds,300,2012-11-22 04:54:00
10:54 PM,36.0,26.1,67,29.99,10.0,West,9.2,-,N/A,,Scattered Clouds,280,2012-11-22 05:54:00
11:54 PM,37.0,27.0,67,30.00,10.0,West,8.1,-,N/A,,Overcast,270,2012-11-22 06:54:00